Погода в Хрустальном

Украина / Луганская область     48°08′13″N   38°55′09″E
темп.,
°C
ветер,
м/с
пор.,
м/с
влажн.,
%
обл.,
%
осадки,
мм/ч
давл.,
гПа
погр.,
м
13 июня, вс
вс1300:00+15ююз35940 0.0 101192
03:00+14ююз23940 0.0 101137
06:00+16юз23910 0.0 1011111
09:00+20юз34714 0.0 1011789
12:00+23зюз455719 0.1 10111684
15:00+22ююз2464100 0.1 1011164
18:00+21юз347283 0.2 1011202
21:00+17зюз22812 0.2 101211
14 июня, пн
пн1400:00+16ююз22813 0.0 101212
03:00+15ю11865 0.0 101210
06:00+17юв118183 0.0 101253
09:00+22ююв226214 0.0 1013669
12:00+24вюв2353100 0.1 10131707
15:00+24в1263100 0.1 1012333
18:00+22св227099 0.3 101243
21:00+20всв2273100 0.3 101224
15 июня, вт
вт1500:00+19св2273100 0.0 101229
03:00+18св347997 0.0 101267
06:00+18св258452 0.0 1011134
09:00+23всв456773 0.5 1011482
12:00+24вюв335788 0.5 10111427
15:00+25вюв225495 0.6 10101572
18:00+22ю3477100 0.8 1009156
21:00+19юз1183100 2.0 100912
16 июня, ср
ср1600:00+18ю118651 1.6 100916
03:00+16ссв1191100 1.6 100911
06:00+18юв1187100 0.0 101064
09:00+20ю1181100 0.0 1010313
12:00+20зюз228786 4.7 1011183
15:00+16зсз249698 10.1 1012152
18:00+20з117721 0.8 1012554
21:00+16зюз34910 1.7 101353
17 июня, чт
чт1700:00+14сз22920 0.0 101314
03:00+13с22940 0.0 101413
06:00+15ссв239449 0.0 1014121
09:00+20ссв458128 0.0 1014556
12:00+23св4567100 0.0 10141155
15:00+23св4679100 1.8 1013779
18:00+19с4798100 14.6 1013238
21:00+19св81696100 31.6 1011964